Location: Clarion
(42.7316°N, 93.7330°W)
Time: 09:06:34
(UTC+00:00)

Cosmos 614 Rocket - Pass Details

Date: 22 April 2026
Orbit: 728 x 757 km, 74.1° (Epoch: 17 May)

Event Time Altitude Azimuth Distance (km) Brightness Sun altitude
Rises 02:04:26 0° 340° (NNW) 3,207 8.0 -11.0°
Reaches altitude 10° 02:06:49 10° 341° (NNW) 2,274 7.2 -11.4°
Maximum altitude 02:11:59 84° 69° (ENE) 753 3.9 -12.2°
Enters shadow 02:16:51 11° 159° (SSE) 2,157 5.9 -13.0°
